User: anonymous   Login
Location: Caltech
(34.1382°N, 118.1253°W)
Time: 11:21:03
(UTC-07:00)
Language:

Cosmos 1937 Rocket - Orbit

View from above orbital plane
View from above orbital plane
View from above satellite
View from above satellite

Ground track
Ground track

The orbit data is extracted from the following two-line orbital elements,

1 19039U 88029B   18113.90729156  .00000110  00000-0  44585-4 0  9994
2 19039  74.0473  87.2282 0023913 186.2989 173.7868 14.38401824575528
Epoch (UTC): 23 April 2018 21:46:29
Eccentricity: 0.0023913
inclination: 74.0473°
perigee height: 747 km
apogee height: 781 km
right ascension of ascending node: 87.2282°
argument of perigee: 186.2989°
revolutions per day: 14.38401824
mean anomaly at epoch: 173.7868°
orbit number at epoch: 57552

The dashed part of the orbit path shows where the satellite is in the earth's shadow,  

DLR